Regional Weather Roundup
Issued by NWS

Home | Current Version | Previous Version | Text Only | Print | Product List | Glossary Off
Versions: 1 2 3 4 5 6 7 8 9 10 11 12 13 14 15 16 17 18 19 20 21 22 23 24 25 26 27

000
ASUS45 KSLC 290110
RWRUT

UTAH REGIONAL WEATHER ROUNDUP
NATIONAL WEATHER SERVICE SALT LAKE CITY UT
700 PM MDT SUN AUG 28 2016

UTZ001>011-023>025-290200-

NORTHERN UTAH

CITY           SKY/WX    TMP DP  RH WIND       PRES   REMARKS
BRIGHAM CITY     N/A     87  23   9 S3        30.12S
HILL AFB       SUNNY     84  32  15 N3        30.17S
LOGAN          SUNNY     86  34  15 CALM      30.13R
OGDEN          SUNNY     86  32  14 W3        30.13S
PROVO AIRPORT  NOT AVBL
SALT LAKE CITY MOSUNNY   89  28  11 N12       30.11S
VERNAL         CLEAR     82  35  18 SW6       30.16R
WENDOVER       SUNNY     88  34  14 SE8       30.11S
HEBER CITY     SUNNY     81  34  18 N7        30.18S
WEST JORDAN    SUNNY     85  36  17 NW10G17   30.15S

$$

UTZ012>022-026-027-290200-

SOUTHERN/CENTRAL UTAH

CITY           SKY/WX    TMP DP  RH WIND       PRES   REMARKS
BLANDING       PTCLDY    74  44  34 CALM      30.30R
BRYCE CANYON   MOSUNNY   69  41  36 CALM      30.37R
CEDAR CITY     MOSUNNY   81  38  21 SW9       30.20R
MILFORD        MOSUNNY   87  28  12 N12       30.14F
MOAB/CYNLANDS  PTCLDY    83  43  24 SE6       30.12S
PRICE            N/A     81  34  18 VRB7      30.21S
ST GEORGE      CLEAR     90  46  22 SE3       30.05S

$$

REGIONAL REPORTS     COLORADO/ARIZONA

CITY           SKY/WX    TMP DP  RH WIND       PRES   REMARKS
CRAIG, CO      CLOUDY    75  33  21 SE10      30.23R
GRAND JUNCTION CLOUDY    75  41  29 E24       30.18F
RIFLE          CLOUDY    70  45  40 MISG      30.26F
MONTROSE       CLOUDY    72  46  39 VRB5      30.28R
CORTEZ         CLOUDY    69  49  48 NE7       30.24S
PAGE, AZ       SUNNY     84  40  21 VRB5      30.12F
GRAND CANYON   SUNNY     72  41  32 VRB3      30.31S
KINGMAN        SUNNY     89  47  23 N8        30.07S
FLAGSTAFF      MOSUNNY   68  41  37 E9        30.31S

$$

REGIONAL REPORTS    NEVADA/IDAHO/WYOMING

CITY           SKY/WX    TMP DP  RH WIND       PRES   REMARKS
LAS VEGAS, NV  MOSUNNY   94  43  17 CALM      29.95S HX  90
ELY            SUNNY     84  23  10 N7        30.24R
ELKO           SUNNY     87  21   9 SW7       30.16S
POCATELLO, ID  SUNNY     84  35  17 W12       30.15R
BURLEY         SUNNY     79  46  31 W9        30.12S
EVANSTON, WY   SUNNY     76  23  14 NW13      30.32R
ROCK SPRINGS   CLEAR     79  21  11 NW8       30.24S

$$




USA.gov is the U.S. government's official web portal to all federal, state and local government web resources and services.